Regional Weather Roundup
Issued by NWS Sterling, VA

Home | Current Version | Previous Version | Graphics & Text | Print | Product List | Glossary On
Versions: 1 2 3 4 5 6 7 8 9 10 11 12 13 14 15 16 17 18 19 20 21 22 23 24 25 26 27 28 29 30 31 32 33 34 35 36 37 38 39 40 41 42 43 44 45 46 47 48 49 50
713
ASUS41 KLWX 261410
RWRLWX

REGIONAL WEATHER ROUNDUP
NATIONAL WEATHER SERVICE BALTIMORE MD/WASHINGTON DC
900 AM EST SUN FEB 26 2017

Note: "FAIR" indicates few or no clouds below 12,000 feet
with no significant weather and/or obstructions to visibility.
 TC=TEMPERATURE CELSIUS

 * =Non NWS site. Station does not report precipitation (e.g. rain,
    snow, etc.), thunder, or fog.

DCZ001-MDZ009-015-VAZ040>042-051-053>054-261500-
WASHINGTON METRO

CITY           SKY/WX    TMP DP  RH WIND       PRES   REMARKS
WASHINGTON NAT MOSUNNY   38  16  40 NW16G26   30.14R WCI  29
DULLES         MOSUNNY   36  15  42 NW14      30.12R WCI  27
ANDREWS AFB    MOSUNNY   37  15  41 NW17G26   30.11R WCI  27
FT BELVOIR     SUNNY     38  15  38 NW18      30.13R WCI  28
QUANTICO       SUNNY     39  17  41 N14G26    30.15R
COLLEGE PARK*  SUNNY     36  14  41 NW15G23   30.13R WCI  26
LEESBURG*      CLOUDY    37  23  56 MISG      30.13R
MANASSAS*      SUNNY     38  16  40 NW13      30.14R
GAITHERSBURG*  CLOUDY    36  12  38 NW12G24   30.14R WCI  27

$$

MDZ006>007-011-014-261500-
BALTIMORE METRO

CITY           SKY/WX    TMP DP  RH WIND       PRES   REMARKS
BWI AIRPORT    MOSUNNY   36  17  46 W16       30.11R WCI  26
MD SCIENCE CTR   N/A     37  14  38 MISG      30.12R
MARTIN STATE   PTSUNNY   37  21  52 W15G24    30.11R WCI  28
ANNAPOLIS      SUNNY     38  20  48 NW17G23   30.11R WCI  28
FORT MEADE*    SUNNY     36  18  48 NW18G28   30.15R WCI  25

$$

MDZ012-015-019>023-261500-
MARYLAND EASTERN SHORE

CITY           SKY/WX    TMP DP  RH WIND       PRES   REMARKS
OCEAN CITY     PTSUNNY   40  24  53 NW12G24   30.07R
SALISBURY      MOSUNNY   40  23  50 NW14G23   30.09R
BAY BRIDGE AP* SUNNY     37  18  44 NW21G26   30.12R WCI  27
CAMBRIDGE*     MOSUNNY   37  18  44 NW18G26   30.11R WCI  27
EASTON*        MOSUNNY   39  18  41 NW16G24   30.13R

$$

MDZ017>025-261500-
SOUTHERN MARYLAND

CITY           SKY/WX    TMP DP  RH WIND       PRES   REMARKS
PATUXENT RIVER MOSUNNY   38  21  50 NW22      30.12R WCI  27
ST INIGOES     SUNNY     39  19  44 NW12G23   30.11R
LEONARDTOWN*   SUNNY     37  19  48 NW12G22   30.14R

$$

MDZ003>005-261500-
NORTH CENTRAL MARYLAND

CITY           SKY/WX    TMP DP  RH WIND       PRES   REMARKS
FREDERICK*     MOSUNNY   36  18  48 NW17G23   30.15R WCI  25
HAGERSTOWN APT CLOUDY    35  15  44 NW16G24   30.10R WCI  25
WESTMINSTER*   CLOUDY    34  18  51 NW14G26   30.08R WCI  24

$$

MDZ501>502-261500-
WESTERN MARYLAND

CITY           SKY/WX    TMP DP  RH WIND       PRES   REMARKS
OAKLAND*       CLOUDY    21  14  73 W14G24    29.98S WCI   8
CUMBERLAND*    MOSUNNY   34  14  44 W16G23    30.14S WCI  23

$$

VAZ025>031-261500-
SHENANDOAH VALLEY

CITY           SKY/WX    TMP DP  RH WIND       PRES   REMARKS
WINCHESTER*    CLOUDY    34  18  51 NW13G18   30.11R WCI  25
FRONT ROYAL*   PTSUNNY   34  18  51 W5        30.10R
LURAY*         CLOUDY    36  21  55 CALM      30.10R
NEW MARKET*    MOSUNNY   35  15  44 S3        30.10R
STAUNTON*      SUNNY     33  14  46 W6        30.12R
WAYNESBORO*    SUNNY     32  13  46 SW9       30.10R WCI  24

$$

WVZ021-048>050-054>055-261500-
EASTERN WEST VIRGINIA PANHANDLE

CITY           SKY/WX    TMP DP  RH WIND       PRES   REMARKS
MARTINSBURG    CLOUDY    34  16  47 NW12      30.11R WCI  25
PETERSBURG*    CLOUDY    36  19  49 W6        30.12R

$$

VAZ036>039-050-261500-
CENTRAL FOOTHILLS

CITY           SKY/WX    TMP DP  RH WIND       PRES   REMARKS
CHARLOTTESVILL SUNNY     38  18  44 SW6       30.12R
CULPEPER*      SUNNY     38  18  43 NW3       30.14R
ORANGE*        SUNNY     37  19  48 CALM      30.14R
GORDONSVILLE*  SUNNY     38  19  46 W5        30.12R
WARRENTON*     SUNNY     39  12  32 NW6       30.13R

$$

VAZ055>057-261500-
NORTH AND CENTRAL PIEDMONT

CITY           SKY/WX    TMP DP  RH WIND       PRES   REMARKS
FREDERICKSBRG* SUNNY     39  20  46 N7        30.14R
STAFFORD*      SUNNY     37  18  46 N12       30.18R

$$

NCZ024-NYZ072-PAZ021-071-VAZ022-071-261500-
OTHER REGIONAL OBSERVATIONS

CITY           SKY/WX    TMP DP  RH WIND       PRES   REMARKS
NEW YORK CITY  CLOUDY    37  18  46 W9G25     29.98R
PHILADELPHIA   PTSUNNY   37  17  44 W21G28    30.06R WCI  26
PITTSBURGH     LGT SNOW  27  21  78 W7        30.10R
ROANOKE        SUNNY     36  16  44 NW20G25   30.15R WCI  25
RICHMOND       SUNNY     40  21  46 N6        30.14R
RALEIGH        SUNNY     42  17  36 NW7       30.18R

$$

ANZ530>537-261500-
MARINE OBSERVATIONS

STATION/POSITION TIME  TEMP    WIND        PRES
                       AIR SEA DIR/SP/G
                 (UTC) (F)     (DEG/KT/KT) (MB)
THOMAS PT LIGHT  1400   36 44  310/ 16/ 19   N/A
BALT KEY BRIDGE  1348   36     280/ 20/ 24 1019.2R
COVE POINT       1348   36     350/ 20/ 25 1020.5R
LEWISETTA        1348   38 50  340/ 14/ 18 1019.8R
SOLOMONS ISLAND  1348   37 45  330/ 17/ 23   N/A
PINEY POINT      1342          340/ 17/ 18   N/A

$$





USA.gov is the U.S. government's official web portal to all federal, state and local government web resources and services.